Regional Weather Roundup
Issued by NWS

Home | Current Version | Previous Version | Graphics & Text | Print | Product List | Glossary On
Versions: 1 2 3 4 5 6 7 8 9 10 11 12 13 14 15 16 17 18 19 20 21 22 23 24 25 26 27
000
ASUS45 KSLC 261610
RWRUT

UTAH REGIONAL WEATHER ROUNDUP
NATIONAL WEATHER SERVICE SALT LAKE CITY UT
1000 AM MDT WED JUL 26 2017

UTZ001>011-023>025-261700-

NORTHERN UTAH

CITY           SKY/WX    TMP DP  RH WIND       PRES   REMARKS
BRIGHAM CITY   CLOUDY    72  56  57 CALM      30.22R
HILL AFB       PTSUNNY   69  62  78 E6        30.24R
LOGAN          LGT RAIN  65  62  90 N5        30.23F
OGDEN          CLOUDY    71  61  70 S6        30.21R
SALT LAKE CITY PTSUNNY   74  63  68 S8        30.20R
TOOELE VALLEY  MOSUNNY   77  61  57 S14       30.21S
WENDOVER       SUNNY     75  57  53 SE7       30.21R
HEBER CITY     MOSUNNY   68  57  68 CALM      30.27F
WEST JORDAN    MOSUNNY   72  69  89 SE12G17   30.23F

$$

UTZ011>015-024>027-261700-

CENTRAL/NORTHEAST UTAH

CITY           SKY/WX    TMP DP  RH WIND       PRES   REMARKS
PROVO AIRPORT  MOSUNNY   72  62  71 SE3       30.25
MOAB/CANYONLAN CLOUDY    78  69  73 CALM      30.20F
DELTA          SUNNY     72  59  64 SW8       30.25S
PRICE          MOSUNNY   69  61  75 S7        30.30S
RICHFIELD      SUNNY     70  61  73 E1        30.29F
ROOSEVELT      CLOUDY    70  61  73 CALM      30.28F
VERNAL         CLOUDY    71  62  73 CALM      30.27S

$$

UTZ013>016-019>022-027-261700-

SOUTHERN UTAH

CITY           SKY/WX    TMP DP  RH WIND       PRES   REMARKS
BRYCE CANYON   SUNNY     67  56  67 CALM      30.43S
CEDAR CITY     SUNNY     71  58  63 CALM      30.29F
MILFORD        SUNNY     73  60  63 S14       30.26S
ST GEORGE      MOSUNNY   76  67  73 CALM      30.17S
HANKSVILLE     MOSUNNY   73  64  73 CALM      30.24S
KANAB          SUNNY     72  61  68 W1        30.32S
BLANDING       MOSUNNY   71  60  68 CALM      30.39S

$$

REGIONAL REPORTS     COLORADO/ARIZONA

CITY           SKY/WX    TMP DP  RH WIND       PRES   REMARKS
CRAIG, CO      CLOUDY    68  59  73 CALM      30.32S
GRAND JUNCTION CLOUDY    74  66  76 E3        30.25R
RIFLE, CO      CLOUDY    67  64  90 CALM      30.30R
MONTROSE, CO   CLOUDY    73  60  63 VRB3      30.31S
CORTEZ, CO     SUNNY     75  58  55 CALM      30.31F
COLORADO CITY    N/A     73  63  68 SE5       30.30S
PAGE, AZ       SUNNY     75  61  61 VRB5      30.24R
GRAND CANYON   SUNNY     69  57  65 SW8       30.39S
KINGMAN, AZ    MOSUNNY   76  65  68 NE3       30.18R
FLAGSTAFF, AZ  SUNNY     69  52  54 SW8       30.42S

$$

REGIONAL REPORTS    NEVADA/IDAHO/WYOMING

CITY           SKY/WX    TMP DP  RH WIND       PRES   REMARKS
LAS VEGAS, NV  PTSUNNY   83  66  56 E6        30.09R
ELY, NY          N/A     65  55  70 MISG      30.34S
ELKO, NV       SUNNY     72  51  47 CALM      30.24S
POCATELLO, ID  CLOUDY    65  60  84 E3        30.24R
BURLEY, ID     SUNNY     73  57  57 E7        30.18S
FORT BRIDGER,  CLOUDY    66  54  66 W3        30.40S
EVANSTON, WY   CLOUDY    62  59  90 SW9       30.37S
ROCK SPRINGS,  SUNNY     67  53  61 CALM      30.35S
KEMMERER, WY     N/A     68  50  52 SW6       30.38S

$$




USA.gov is the U.S. government's official web portal to all federal, state and local government web resources and services.